DW9371 Weather Reports


time (UTC)temp
C
wind
direction
speed
KPH
gust
KPH
rain 1hr
cm
rain 24hr
cm
rain mn
cm
humidity
%
barometer
mb
20260508010603 10 118 4.8 9.7 0.00 0.00 0.00 3 1013.2
20260508010106 10 112 4.8 11.3 0.00 0.00 0.00 3 1013.2
20260508000604 10 115 4.8 12.9 0.00 0.00 0.00 3 1013.3
20260508000105 10 133 3.2 9.7 0.00 0.00 0.00 3 1013.4
20260507230604 10 114 3.2 4.8 0.00 0.00 0.00 3 1013.4
20260507230105 10 115 3.2 12.9 0.00 0.00 0.00 3 1013.4
20260507220105 10 120 1.6 8.0 0.00 0.00 0.00 3 1013.6
20260507210603 10 126 1.6 4.8 0.00 0.00 0.00 3 1013.7
20260507210105 10 126 1.6 9.7 0.00 0.00 0.00 3 1013.7
20260507200604 10 141 1.6 4.8 0.00 0.00 0.00 3 1013.2
20260507200105 10 141 1.6 4.8 0.00 0.00 0.00 3 1013.1
20260507190604 10 163 0.0 0.0 0.00 0.00 0.00 3 1012.9
20260507190109 10 163 0.0 11.3 0.00 0.00 0.00 3 1012.8
20260507170105 10 180 4.8 19.3 0.00 0.00 0.00 3 1012.6
20260507160604 10 169 8.0 16.1 0.00 0.00 0.00 3 1012.7
20260507150604 10 141 4.8 14.5 0.00 0.00 0.00 3 1013.0
20260507150109 10 150 9.7 24.1 0.00 0.00 0.00 3 1013.0
20260507140604 10 126 8.0 19.3 0.00 0.00 0.00 3 1013.4
20260507140106 10 147 9.7 24.1 0.00 0.00 0.00 3 1013.4
20260507130604 10 136 11.3 19.3 0.00 0.00 0.00 3 1013.4
20260507130106 10 140 8.0 25.7 0.00 0.00 0.00 3 1013.5
20260507120604 10 126 4.8 19.3 0.00 0.00 0.00 3 1013.5
20260507120106 10 122 9.7 20.9 0.00 0.00 0.00 3 1013.6
20260507110604 10 184 6.4 12.9 0.00 0.00 0.00 3 1013.7
20260507110105 10 155 8.0 19.3 0.00 0.00 0.00 3 1013.8
20260507100604 10 151 8.0 19.3 0.00 0.00 0.00 3 1013.8
20260507100106 10 127 9.7 22.5 0.00 0.00 0.00 3 1013.9
20260507090602 10 133 9.7 19.3 0.00 0.00 0.00 3 1013.8
20260507080603 10 140 9.7 16.1 0.00 0.00 0.00 3 1013.9
20260507080110 10 156 4.8 14.5 0.00 0.00 0.00 3 1013.8
20260507070603 10 116 3.2 11.3 0.00 0.00 0.00 3 1013.3
20260507060603 10 136 3.2 8.0 0.00 0.00 0.00 3 1013.4
20260507060105 10 136 1.6 4.8 0.00 0.00 0.00 3 1013.3
20260507050603 10 186 3.2 4.8 0.00 0.00 0.00 3 1013.1
20260507050104 10 143 1.6 11.3 0.00 0.00 0.00 3 1013.0
20260507040603 10 143 4.8 8.0 0.00 0.00 0.00 3 1013.6
20260507030603 10 188 3.2 4.8 0.00 0.00 0.00 3 1014.2
20260507030104 10 188 3.2 8.0 0.00 0.00 0.00 3 1014.2